Simultaneous Nadir Overpasses (SNOs) Predictions

Prediction of SNOs between GOES-15 and METOP-C Satellite Orbit:

Table of predicted SNOs for the next 14.0 days since TLE Epoch: 8/24/2019
Index Date Time (GOES-15) GOES-15 Lat,Lon METOP-C Lat,Lon Distance(km) Time Diff (sec)
1 08/26/2019 06:10:43 0.14,-128.39 -0.28,-130.25 212.91 80
2 08/27/2019 05:52:44 0.11,-128.38 0.82,-125.26 355.69 80
3 08/28/2019 18:08:55 -0.15,-128.41 0.17,-129.82 160.52 80
4 08/29/2019 17:50:56 -0.13,-128.40 -0.94,-124.83 408.04 80
5 08/31/2019 06:07:17 0.17,-128.34 -0.08,-129.43 124.40 80
6 09/01/2019 05:49:17 0.15,-128.32 1.03,-124.43 443.72 80
7 09/02/2019 18:05:29 -0.18,-128.35 -0.04,-129.00 73.17 80
8 09/03/2019 17:47:29 -0.16,-128.34 -1.15,-124.00 495.09 80
9 09/05/2019 06:03:51 0.19,-128.27 0.14,-128.60 37.56 80
10 09/07/2019 18:04:41 -0.20,-128.27 -0.20,-128.16 12.36 80




NCC Satellite Simultaneous Nadir Overpasses (SNOs) Prediction Service
